Location: Mainz-Finthen
(49.9906°N, 8.1713°E)
Time: 01:56:16
(UTC+00:00)

N. Korean satellite - Pass Details

Date: 30 September 2021
Orbit: 450 x 495 km, 97.3° (Epoch: 15 October)

Event Time Altitude Azimuth Distance (km) Brightness Sun altitude
Rises 04:17:02 0° 21° (NNE) 2,542 10.7 -11.9°
Reaches altitude 10° 04:19:14 10° 31° (NNE) 1,666 9.9 -11.5°
Maximum altitude 04:22:30 33° 97° (E) 844 8.6 -11.0°
Drops below altitude 10° 04:25:47 10° 162° (SSE) 1,674 9.4 -10.5°
Sets 04:28:00 0° 173° (S) 2,556 10.2 -10.1°
